Time,TemperatureF,DewpointF,PressureIn,WindDirection,WindDirectionDegrees,WindSpeedMPH,WindSpeedGustMPH,Humidity,HourlyPrecipIn,Conditions,Clouds,dailyrainin,SoftwareType,DateUTC
2013-06-17 00:13:00,64.6,47.6,30.13,North,-999,-999.0,-999.0,54,-99.99,,,-99.99,Acu-Link.com,2013-06-17 08:13:00,
2013-06-17 00:29:00,64.4,47.4,30.13,North,-999,-999.0,-999.0,54,-99.99,,,-99.99,Acu-Link.com,2013-06-17 08:29:00,
2013-06-17 00:44:00,63.7,47.2,30.13,North,-999,-999.0,-999.0,55,-99.99,,,-99.99,Acu-Link.com,2013-06-17 08:44:00,
2013-06-17 00:59:00,63.1,47.2,30.13,North,-999,-999.0,-999.0,56,-99.99,,,-99.99,Acu-Link.com,2013-06-17 08:59:00,
2013-06-17 01:15:00,63.0,47.5,30.13,North,-999,-999.0,-999.0,57,-99.99,,,-99.99,Acu-Link.com,2013-06-17 09:15:00,
2013-06-17 01:31:00,62.6,47.6,30.13,North,-999,-999.0,-999.0,58,-99.99,,,-99.99,Acu-Link.com,2013-06-17 09:31:00,
2013-06-17 01:46:00,62.4,47.9,30.13,North,-999,-999.0,-999.0,59,-99.99,,,-99.99,Acu-Link.com,2013-06-17 09:46:00,
2013-06-17 02:01:00,62.4,48.3,30.13,North,-999,-999.0,-999.0,60,-99.99,,,-99.99,Acu-Link.com,2013-06-17 10:01:00,
2013-06-17 02:16:00,62.1,48.0,30.13,North,-999,-999.0,-999.0,60,-99.99,,,-99.99,Acu-Link.com,2013-06-17 10:16:00,
2013-06-17 02:31:00,61.9,48.3,30.14,North,-999,-999.0,-999.0,61,-99.99,,,-99.99,Acu-Link.com,2013-06-17 10:31:00,
2013-06-17 02:46:00,61.7,48.5,30.14,North,-999,-999.0,-999.0,62,-99.99,,,-99.99,Acu-Link.com,2013-06-17 10:46:00,
2013-06-17 03:01:00,61.3,48.2,30.14,North,-999,-999.0,-999.0,62,-99.99,,,-99.99,Acu-Link.com,2013-06-17 11:01:00,
2013-06-17 03:16:00,61.0,47.9,30.14,North,-999,-999.0,-999.0,62,-99.99,,,-99.99,Acu-Link.com,2013-06-17 11:16:00,
2013-06-17 03:32:00,60.8,48.1,30.14,North,-999,-999.0,-999.0,63,-99.99,,,-99.99,Acu-Link.com,2013-06-17 11:32:00,
2013-06-17 03:47:00,60.3,48.0,30.15,North,-999,-999.0,-999.0,64,-99.99,,,-99.99,Acu-Link.com,2013-06-17 11:47:00,
2013-06-17 04:03:00,60.4,48.2,30.15,North,-999,-999.0,-999.0,64,-99.99,,,-99.99,Acu-Link.com,2013-06-17 12:03:00,
2013-06-17 04:18:00,60.4,47.8,30.15,North,-999,-999.0,-999.0,63,-99.99,,,-99.99,Acu-Link.com,2013-06-17 12:18:00,
2013-06-17 04:33:00,60.4,47.8,30.15,North,-999,-999.0,-999.0,63,-99.99,,,-99.99,Acu-Link.com,2013-06-17 12:33:00,
2013-06-17 04:48:00,60.1,47.0,30.15,North,-999,-999.0,-999.0,62,-99.99,,,-99.99,Acu-Link.com,2013-06-17 12:48:00,
2013-06-17 05:03:00,59.5,46.5,30.16,North,-999,-999.0,-999.0,62,-99.99,,,-99.99,Acu-Link.com,2013-06-17 13:03:00,
2013-06-17 05:18:00,59.5,46.5,30.16,North,-999,-999.0,-999.0,62,-99.99,,,-99.99,Acu-Link.com,2013-06-17 13:18:00,
2013-06-17 05:34:00,59.5,46.1,30.16,North,-999,-999.0,-999.0,61,-99.99,,,-99.99,Acu-Link.com,2013-06-17 13:34:00,
2013-06-17 05:50:00,59.5,45.6,30.16,North,-999,-999.0,-999.0,60,-99.99,,,-99.99,Acu-Link.com,2013-06-17 13:50:00,
2013-06-17 06:05:00,59.5,45.2,30.17,North,-999,-999.0,-999.0,59,-99.99,,,-99.99,Acu-Link.com,2013-06-17 14:05:00,
2013-06-17 06:20:00,59.7,44.9,30.17,North,-999,-999.0,-999.0,58,-99.99,,,-99.99,Acu-Link.com,2013-06-17 14:20:00,
2013-06-17 06:35:00,59.4,44.6,30.17,North,-999,-999.0,-999.0,58,-99.99,,,-99.99,Acu-Link.com,2013-06-17 14:35:00,
2013-06-17 06:50:00,59.5,44.3,30.18,North,-999,-999.0,-999.0,57,-99.99,,,-99.99,Acu-Link.com,2013-06-17 14:50:00,
2013-06-17 07:06:00,59.9,44.2,30.18,North,-999,-999.0,-999.0,56,-99.99,,,-99.99,Acu-Link.com,2013-06-17 15:06:00,
2013-06-17 07:21:00,59.9,43.7,30.18,North,-999,-999.0,-999.0,55,-99.99,,,-99.99,Acu-Link.com,2013-06-17 15:21:00,
2013-06-17 07:37:00,59.7,43.5,30.18,North,-999,-999.0,-999.0,55,-99.99,,,-99.99,Acu-Link.com,2013-06-17 15:37:00,
2013-06-17 07:52:00,59.7,43.5,30.18,North,-999,-999.0,-999.0,55,-99.99,,,-99.99,Acu-Link.com,2013-06-17 15:52:00,
2013-06-17 08:07:00,60.4,43.7,30.18,North,-999,-999.0,-999.0,54,-99.99,,,-99.99,Acu-Link.com,2013-06-17 16:07:00,
2013-06-17 08:22:00,61.0,43.7,30.18,North,-999,-999.0,-999.0,53,-99.99,,,-99.99,Acu-Link.com,2013-06-17 16:22:00,
2013-06-17 08:37:00,61.7,44.4,30.17,North,-999,-999.0,-999.0,53,-99.99,,,-99.99,Acu-Link.com,2013-06-17 16:37:00,
2013-06-17 08:53:00,61.5,44.2,30.17,North,-999,-999.0,-999.0,53,-99.99,,,-99.99,Acu-Link.com,2013-06-17 16:53:00,
2013-06-17 09:08:00,62.4,44.6,30.17,North,-999,-999.0,-999.0,52,-99.99,,,-99.99,Acu-Link.com,2013-06-17 17:08:00,
2013-06-17 09:23:00,63.7,45.7,30.17,North,-999,-999.0,-999.0,52,-99.99,,,-99.99,Acu-Link.com,2013-06-17 17:23:00,
2013-06-17 09:38:00,64.9,46.4,30.17,North,-999,-999.0,-999.0,51,-99.99,,,-99.99,Acu-Link.com,2013-06-17 17:38:00,
2013-06-17 09:54:00,65.7,46.5,30.17,North,-999,-999.0,-999.0,50,-99.99,,,-99.99,Acu-Link.com,2013-06-17 17:54:00,
2013-06-17 10:09:00,66.7,47.0,30.17,North,-999,-999.0,-999.0,49,-99.99,,,-99.99,Acu-Link.com,2013-06-17 18:09:00,
2013-06-17 10:24:00,67.6,47.2,30.17,North,-999,-999.0,-999.0,48,-99.99,,,-99.99,Acu-Link.com,2013-06-17 18:24:00,
2013-06-17 10:39:00,69.1,46.8,30.17,North,-999,-999.0,-999.0,45,-99.99,,,-99.99,Acu-Link.com,2013-06-17 18:39:00,
2013-06-17 10:54:00,69.3,47.0,30.16,North,-999,-999.0,-999.0,45,-99.99,,,-99.99,Acu-Link.com,2013-06-17 18:54:00,
2013-06-17 11:09:00,70.2,46.6,30.16,North,-999,-999.0,-999.0,43,-99.99,,,-99.99,Acu-Link.com,2013-06-17 19:09:00,
2013-06-17 11:24:00,71.2,47.6,30.16,North,-999,-999.0,-999.0,43,-99.99,,,-99.99,Acu-Link.com,2013-06-17 19:24:00,
2013-06-17 11:40:00,72.0,47.0,30.16,North,-999,-999.0,-999.0,41,-99.99,,,-99.99,Acu-Link.com,2013-06-17 19:40:00,
2013-06-17 11:55:00,72.1,46.5,30.16,North,-999,-999.0,-999.0,40,-99.99,,,-99.99,Acu-Link.com,2013-06-17 19:55:00,
2013-06-17 12:10:00,72.9,46.4,30.16,North,-999,-999.0,-999.0,39,-99.99,,,-99.99,Acu-Link.com,2013-06-17 20:10:00,
2013-06-17 12:25:00,73.8,46.6,30.15,North,-999,-999.0,-999.0,38,-99.99,,,-99.99,Acu-Link.com,2013-06-17 20:25:00,
2013-06-17 12:41:00,74.3,45.6,30.15,North,-999,-999.0,-999.0,36,-99.99,,,-99.99,Acu-Link.com,2013-06-17 20:41:00,
2013-06-17 12:56:00,74.8,45.3,30.14,North,-999,-999.0,-999.0,35,-99.99,,,-99.99,Acu-Link.com,2013-06-17 20:56:00,
2013-06-17 13:11:00,75.2,44.9,30.14,North,-999,-999.0,-999.0,34,-99.99,,,-99.99,Acu-Link.com,2013-06-17 21:11:00,
2013-06-17 13:27:00,75.6,44.4,30.13,North,-999,-999.0,-999.0,33,-99.99,,,-99.99,Acu-Link.com,2013-06-17 21:27:00,
2013-06-17 13:42:00,75.6,43.6,30.14,North,-999,-999.0,-999.0,32,-99.99,,,-99.99,Acu-Link.com,2013-06-17 21:42:00,
2013-06-17 13:57:00,75.7,43.8,30.12,North,-999,-999.0,-999.0,32,-99.99,,,-99.99,Acu-Link.com,2013-06-17 21:57:00,
2013-06-17 14:12:00,76.3,44.2,30.12,North,-999,-999.0,-999.0,32,-99.99,,,-99.99,Acu-Link.com,2013-06-17 22:12:00,
2013-06-17 14:27:00,76.5,44.4,30.11,North,-999,-999.0,-999.0,32,-99.99,,,-99.99,Acu-Link.com,2013-06-17 22:27:00,
2013-06-17 14:42:00,76.5,44.4,30.10,North,-999,-999.0,-999.0,32,-99.99,,,-99.99,Acu-Link.com,2013-06-17 22:42:00,
2013-06-17 14:57:00,76.5,43.6,30.10,North,-999,-999.0,-999.0,31,-99.99,,,-99.99,Acu-Link.com,2013-06-17 22:57:00,
2013-06-17 15:12:00,76.5,43.6,30.09,North,-999,-999.0,-999.0,31,-99.99,,,-99.99,Acu-Link.com,2013-06-17 23:12:00,
2013-06-17 15:27:00,76.5,42.7,30.09,North,-999,-999.0,-999.0,30,-99.99,,,-99.99,Acu-Link.com,2013-06-17 23:27:00,
2013-06-17 15:42:00,76.6,42.9,30.08,North,-999,-999.0,-999.0,30,-99.99,,,-99.99,Acu-Link.com,2013-06-17 23:42:00,
2013-06-17 15:57:00,76.6,42.9,30.08,North,-999,-999.0,-999.0,30,-99.99,,,-99.99,Acu-Link.com,2013-06-17 23:57:00,
2013-06-17 16:12:00,76.6,42.9,30.08,North,-999,-999.0,-999.0,30,-99.99,,,-99.99,Acu-Link.com,2013-06-18 00:12:00,
2013-06-17 16:29:00,76.5,41.8,30.08,North,-999,-999.0,-999.0,29,-99.99,,,-99.99,Acu-Link.com,2013-06-18 00:29:00,
2013-06-17 16:45:00,76.5,41.8,30.08,North,-999,-999.0,-999.0,29,-99.99,,,-99.99,Acu-Link.com,2013-06-18 00:45:00,
2013-06-17 17:00:00,76.5,40.9,30.08,North,-999,-999.0,-999.0,28,-99.99,,,-99.99,Acu-Link.com,2013-06-18 01:00:00,
2013-06-17 17:15:00,76.3,40.8,30.08,North,-999,-999.0,-999.0,28,-99.99,,,-99.99,Acu-Link.com,2013-06-18 01:15:00,
2013-06-17 17:30:00,76.3,40.8,30.07,North,-999,-999.0,-999.0,28,-99.99,,,-99.99,Acu-Link.com,2013-06-18 01:30:00,
2013-06-17 17:45:00,76.1,40.6,30.07,North,-999,-999.0,-999.0,28,-99.99,,,-99.99,Acu-Link.com,2013-06-18 01:45:00,
2013-06-17 18:00:00,75.7,39.4,30.07,North,-999,-999.0,-999.0,27,-99.99,,,-99.99,Acu-Link.com,2013-06-18 02:00:00,
2013-06-17 18:16:00,75.2,38.9,30.07,North,-999,-999.0,-999.0,27,-99.99,,,-99.99,Acu-Link.com,2013-06-18 02:16:00,
2013-06-17 18:31:00,75.2,38.9,30.07,North,-999,-999.0,-999.0,27,-99.99,,,-99.99,Acu-Link.com,2013-06-18 02:31:00,
2013-06-17 18:46:00,75.2,38.9,30.06,North,-999,-999.0,-999.0,27,-99.99,,,-99.99,Acu-Link.com,2013-06-18 02:46:00,
2013-06-17 19:02:00,75.2,37.9,30.06,North,-999,-999.0,-999.0,26,-99.99,,,-99.99,Acu-Link.com,2013-06-18 03:02:00,
2013-06-17 19:17:00,74.8,38.6,30.06,North,-999,-999.0,-999.0,27,-99.99,,,-99.99,Acu-Link.com,2013-06-18 03:17:00,
2013-06-17 19:32:00,74.7,38.5,30.06,North,-999,-999.0,-999.0,27,-99.99,,,-99.99,Acu-Link.com,2013-06-18 03:32:00,
2013-06-17 19:47:00,74.5,39.2,30.05,North,-999,-999.0,-999.0,28,-99.99,,,-99.99,Acu-Link.com,2013-06-18 03:47:00,
2013-06-17 20:02:00,75.4,42.6,30.05,North,-999,-999.0,-999.0,31,-99.99,,,-99.99,Acu-Link.com,2013-06-18 04:02:00,
2013-06-17 20:17:00,74.8,42.2,30.04,North,-999,-999.0,-999.0,31,-99.99,,,-99.99,Acu-Link.com,2013-06-18 04:17:00,
2013-06-17 20:32:00,73.6,40.2,30.04,North,-999,-999.0,-999.0,30,-99.99,,,-99.99,Acu-Link.com,2013-06-18 04:32:00,
2013-06-17 20:48:00,72.0,38.8,30.05,North,-999,-999.0,-999.0,30,-99.99,,,-99.99,Acu-Link.com,2013-06-18 04:48:00,
2013-06-17 21:03:00,70.2,38.1,30.05,North,-999,-999.0,-999.0,31,-99.99,,,-99.99,Acu-Link.com,2013-06-18 05:03:00,
2013-06-17 21:19:00,69.4,37.5,30.04,North,-999,-999.0,-999.0,31,-99.99,,,-99.99,Acu-Link.com,2013-06-18 05:19:00,
2013-06-17 21:34:00,68.5,36.7,30.05,North,-999,-999.0,-999.0,31,-99.99,,,-99.99,Acu-Link.com,2013-06-18 05:34:00,
2013-06-17 21:49:00,67.6,36.7,30.05,North,-999,-999.0,-999.0,32,-99.99,,,-99.99,Acu-Link.com,2013-06-18 05:49:00,
2013-06-17 22:04:00,67.1,36.3,30.05,North,-999,-999.0,-999.0,32,-99.99,,,-99.99,Acu-Link.com,2013-06-18 06:04:00,
2013-06-17 22:19:00,66.4,35.6,30.05,North,-999,-999.0,-999.0,32,-99.99,,,-99.99,Acu-Link.com,2013-06-18 06:19:00,
2013-06-17 22:34:00,65.3,35.5,30.05,North,-999,-999.0,-999.0,33,-99.99,,,-99.99,Acu-Link.com,2013-06-18 06:34:00,
2013-06-17 22:50:00,64.9,35.1,30.05,North,-999,-999.0,-999.0,33,-99.99,,,-99.99,Acu-Link.com,2013-06-18 06:50:00,
2013-06-17 23:05:00,64.9,37.3,30.06,North,-999,-999.0,-999.0,36,-99.99,,,-99.99,Acu-Link.com,2013-06-18 07:05:00,
2013-06-17 23:20:00,65.7,41.9,30.07,North,-999,-999.0,-999.0,42,-99.99,,,-99.99,Acu-Link.com,2013-06-18 07:20:00,
2013-06-17 23:35:00,64.6,40.3,30.06,North,-999,-999.0,-999.0,41,-99.99,,,-99.99,Acu-Link.com,2013-06-18 07:35:00,
2013-06-17 23:50:00,64.6,40.3,30.07,North,-999,-999.0,-999.0,41,-99.99,,,-99.99,Acu-Link.com,2013-06-18 07:50:00,